Regional Weather Roundup
Issued by NWS Jackson, KY

Home | Current Version | Previous Version | Graphics & Text | Print | Product List | Glossary On
Versions: 1 2 3 4 5 6 7 8 9 10 11 12 13 14 15 16 17 18 19 20 21 22 23 24 25 26 27
000
ASUS43 KJKL 240510
RWRJKL

EAST KENTUCKY HOURLY WEATHER ROUNDUP
NATIONAL WEATHER SERVICE JACKSON KY
100 AM EDT TUE APR 24 2018

NOTE: "FAIR" INDICATES FEW OR NO CLOUDS BELOW 12,000 FEET WITH
NO SIGNIFICANT WEATHER AND/OR OBSTRUCTIONS TO VISIBILITY.

* THESE REPORTS ARE NOT UNDER NWS QUALITY CONTROL AND MAY NOT
  REPORT WEATHER SUCH AS PRECIPITATION AND FOG.

KYZ079-080-083-085-087-088-110-112-115-119-120-240600
...EASTERN KENTUCKY...

CITY           SKY/WX    TMP DP  RH WIND       PRES   REMARKS
JACKSON        LGT RAIN  55  46  71 VRB6      29.97F
LONDON         LGT RAIN  56  50  80 CALM      29.94S
SOMERSET*      RAIN      52  52 100 N3        29.96F
MONTICELLO*    RAIN      54  53  97 W6        29.97S
WILLIAMSBURG*  MOCLDY    57  50  77 E3        29.93F
MIDDLESBORO*   CLOUDY    54  52  95 CALM      29.96F
HARLAN APT*    CLOUDY    57  48  72 SE8G26    29.96F
PIKE CO APT*     N/A     57  45  63 SE12G24   30.00F
BIG SANDY APT*   N/A     56  46  69 E8        30.02F
MOREHEAD APT*  LGT RAIN  54  46  76 E8G15     30.01F
ASHLAND*       MOCLDY    53  48  83 E5        30.06F
$$

KYZ035-036-041-042-044-050-067-078-099-240600
...CENTRAL KENTUCKY...

CITY           SKY/WX    TMP DP  RH WIND       PRES   REMARKS
MT STERLING*   RAIN      52  50  93 E8G16     30.00S
FLEMING/MASON*   N/A     51  49  93 E8        30.02F
DANVILLE*      LGT RAIN  52  52 100 NE3       29.97F
LEXINGTON      LGT RAIN  55  49  80 E5        29.98R
FRANKFORT      LGT RAIN  55  50  83 CALM      29.97S
LOUISVILLE     LGT RAIN  56  52  86 NE6       29.97F
GLASGOW*       CLOUDY    55  53  95 NE3       29.93R
BOWLING GREEN  CLOUDY    56  55  97 NE3       29.92F
$$

KYZ091>093-OHZ055-061-077-WVZ005-015-034-035-042-240600
...SOUTHERN OHIO/WEST VIRGINIA...

CITY           SKY/WX    TMP DP  RH WIND       PRES   REMARKS
COVINGTON      CLOUDY    53  48  83 E12       30.01F
COLUMBUS       RAIN      53  48  83 E8        30.12F
DAYTON         CLOUDY    52  50  93 E16G24    30.07F
WILMINGTON     CLOUDY    51  49  92 E9        30.05F
HUNTINGTON       N/A     51  46  83 E7        30.05F
CHARLESTON     MOCLDY    52  50  93 NE7       30.08F
PINEVILLE*     CLOUDY    56  46  68 MISG      30.12F
BECKLEY        CLOUDY    51  45  79 SE20G37   30.11F
BLUEFIELD      LGT RAIN  49  44  83 E14G28    30.10F
LOGAN CO APT*  CLOUDY    57  46  67 SE10G23   30.05F
$$

VAZ002-007-008-TNZ017-027-036-066-071-240600
...SOUTHWEST VIRGINIA/EAST TENNESSEE...

CITY           SKY/WX    TMP DP  RH WIND       PRES   REMARKS
WISE*          MOCLDY    54  45  71 SE8G16    30.03F
JONESVILLE*    CLOUDY    57  46  67 NE8       29.99F
ABINGDON*      MOCLDY    57  47  68 SE17G28   30.03F
BRISTOL        MOCLDY    59  47  64 E14G22    29.99F
MORRISTOWN*    MOCLDY    57  52  82 E10       29.93S
SEVIERVILLE*   MOCLDY    61  52  72 E8G14     29.89S
KNOXVILLE      MOCLDY    55  55 100 N5        29.88F
LAFOLLETTE*    CLOUDY    54  54 100 CALM      29.96F
OAK RIDGE      CLOUDY    56  55  97 CALM      29.92S
CROSSVILLE     CLOUDY    53  52  96 E6        29.92F
NASHVILLE      CLOUDY    57  55  93 N5        29.90F
$$

...KEY TO REMARKS...
VSB - VISIBILITY IN MILES
WCI - WIND CHILL INDEX
HX  - HEAT INDEX

$$




USA.gov is the U.S. government's official web portal to all federal, state and local government web resources and services.